When you browse on this site, cookies collect data to enhance your experience and personalize the content and advertising you see.
Visit our Privacy Policy to learn more. By continuing to use the site, you agree to this use of cookies and data.
  • In Portugal
  • List of Countries
  • For 7 days
  • Water Temperature
  • Satellite Maps
  • Weather Map
  • Weather Widgets
  • user-avatar
    Login

    Hourly Weather Gutowiec

    Today, 25 May, Saturday

    Time Temperature Precipitation Wind Pressure Humidity
    00:00 +13°C° 0 mm 2 mps 744 mmHg 72%
    01:00 +12°C° 0 mm 3 mps 743 mmHg 71%
    02:00 +12°C° 0 mm 2 mps 743 mmHg 76%
    03:00 +12°C° 0 mm 2 mps 743 mmHg 81%
    04:00 +12°C° 0 mm 2 mps 743 mmHg 85%
    05:00 +12°C° 0 mm 3 mps 744 mmHg 81%
    06:00 +13°C° 0 mm 3 mps 744 mmHg 77%
    07:00 +14°C° 0 mm 4 mps 744 mmHg 73%
    08:00 +14°C° 0 mm 4 mps 744 mmHg 70%
    09:00 +14°C° 0 mm 4 mps 745 mmHg 68%
    10:00 +14°C° 0 mm 5 mps 745 mmHg 65%
    11:00 +15°C° 0 mm 5 mps 745 mmHg 63%
    12:00 +15°C° 0 mm 5 mps 745 mmHg 60%
    13:00 +15°C° 0 mm 4 mps 745 mmHg 58%
    14:00 +15°C° 0 mm 4 mps 745 mmHg 58%
    15:00 +15°C° 0 mm 4 mps 745 mmHg 58%
    16:00 +15°C° 0 mm 4 mps 745 mmHg 59%
    17:00 +14°C° 0 mm 4 mps 745 mmHg 63%
    18:00 +13°C° 0 mm 3 mps 745 mmHg 68%
    19:00 +12°C° 0 mm 3 mps 745 mmHg 72%
    20:00 +11°C° 0 mm 3 mps 745 mmHg 78%
    21:00 +10°C° 0 mm 3 mps 745 mmHg 83%
    22:00 +8°C° 0 mm 3 mps 745 mmHg 89%
    23:00 +8°C° 0 mm 3 mps 745 mmHg 89%

    Tomorrow, 26 May, Sunday

    Time Temperature Precipitation Wind Pressure Humidity
    00:00 +8°C° 0 mm 3 mps 745 mmHg 90%
    01:00 +8°C° 0 mm 3 mps 745 mmHg 90%
    02:00 +8°C° 0 mm 3 mps 745 mmHg 92%
    03:00 +8°C° 0 mm 3 mps 745 mmHg 93%
    04:00 +8°C° 0 mm 3 mps 744 mmHg 95%
    05:00 +8°C° 0 mm 4 mps 744 mmHg 89%
    06:00 +10°C° 0 mm 4 mps 744 mmHg 83%
    07:00 +10°C° 0 mm 5 mps 744 mmHg 77%
    08:00 +12°C° 0 mm 5 mps 744 mmHg 72%
    09:00 +13°C° 0 mm 5 mps 744 mmHg 67%
    10:00 +14°C° 0 mm 5 mps 744 mmHg 62%
    11:00 +14°C° 0 mm 5 mps 744 mmHg 61%
    12:00 +14°C° 0 mm 5 mps 744 mmHg 61%
    13:00 +15°C° 0 mm 5 mps 743 mmHg 61%
    14:00 +15°C° 0 mm 5 mps 743 mmHg 64%
    15:00 +14°C° 0 mm 4 mps 743 mmHg 66%
    16:00 +14°C° 0 mm 3 mps 743 mmHg 69%
    17:00 +14°C° 0.1 mm 4 mps 742 mmHg 74%
    18:00 +14°C° 0.1 mm 4 mps 742 mmHg 79%
    19:00 +13°C° 0.1 mm 4 mps 742 mmHg 84%
    20:00 +13°C° 0 mm 4 mps 742 mmHg 86%
    21:00 +13°C° 0 mm 4 mps 742 mmHg 89%
    22:00 +12°C° 0 mm 4 mps 742 mmHg 91%
    23:00 +13°C° 0.2 mm 4 mps 742 mmHg 92%

    Day after tomorrow, 27 May, Monday

    Time Temperature Precipitation Wind Pressure Humidity
    00:00 +13°C° 0.2 mm 3 mps 742 mmHg 93%
    01:00 +13°C° 0.2 mm 3 mps 742 mmHg 94%
    02:00 +13°C° 0.2 mm 4 mps 742 mmHg 94%
    03:00 +13°C° 0.2 mm 4 mps 741 mmHg 94%
    04:00 +13°C° 0.2 mm 4 mps 741 mmHg 94%
    05:00 +14°C° 0 mm 5 mps 741 mmHg 91%
    06:00 +15°C° 0 mm 6 mps 741 mmHg 88%
    07:00 +16°C° 0 mm 6 mps 741 mmHg 85%
    08:00 +16°C° 0.5 mm 6 mps 741 mmHg 86%
    09:00 +16°C° 0.5 mm 5 mps 741 mmHg 88%
    10:00 +16°C° 0.5 mm 5 mps 741 mmHg 89%
    11:00 +16°C° 0.8 mm 5 mps 741 mmHg 85%
    12:00 +18°C° 0.8 mm 4 mps 741 mmHg 82%
    13:00 +19°C° 0.8 mm 4 mps 741 mmHg 78%
    14:00 +18°C° 0.5 mm 4 mps 741 mmHg 81%
    15:00 +18°C° 0.5 mm 4 mps 741 mmHg 84%
    16:00 +17°C° 0.5 mm 4 mps 741 mmHg 87%
    17:00 +16°C° 0 mm 3 mps 742 mmHg 87%
    18:00 +16°C° 0 mm 3 mps 742 mmHg 86%
    19:00 +14°C° 0 mm 3 mps 742 mmHg 86%
    20:00 +13°C° 0 mm 2 mps 742 mmHg 89%
    21:00 +12°C° 0 mm 2 mps 743 mmHg 92%
    22:00 +11°C° 0 mm 1 mps 743 mmHg 95%
    23:00 +10°C° 0 mm 1 mps 743 mmHg 95%

    28 May, Tuesday

    Time Temperature Precipitation Wind Pressure Humidity
    00:00 +10°C° 0 mm 1 mps 743 mmHg 95%
    01:00 +10°C° 0 mm 1 mps 743 mmHg 94%
    02:00 +10°C° 0 mm 1 mps 743 mmHg 94%
    03:00 +10°C° 0 mm 1 mps 743 mmHg 94%
    04:00 +10°C° 0 mm 1 mps 743 mmHg 94%
    05:00 +11°C° 0 mm 1 mps 743 mmHg 89%
    06:00 +12°C° 0 mm 1 mps 743 mmHg 84%
    07:00 +14°C° 0 mm 2 mps 743 mmHg 79%
    08:00 +15°C° 0 mm 2 mps 743 mmHg 75%
    09:00 +15°C° 0 mm 2 mps 743 mmHg 71%
    10:00 +16°C° 0 mm 2 mps 743 mmHg 67%
    11:00 +16°C° 0.2 mm 2 mps 743 mmHg 69%
    12:00 +16°C° 0.2 mm 2 mps 742 mmHg 71%
    13:00 +16°C° 0.2 mm 1 mps 742 mmHg 74%
    14:00 +15°C° 0.1 mm 2 mps 742 mmHg 77%
    15:00 +15°C° 0.1 mm 2 mps 742 mmHg 80%
    16:00 +15°C° 0.1 mm 2 mps 741 mmHg 83%
    17:00 +14°C° 0.3 mm 2 mps 741 mmHg 86%
    18:00 +12°C° 0.3 mm 3 mps 741 mmHg 89%
    19:00 +12°C° 0.3 mm 3 mps 741 mmHg 93%
    20:00 +11°C° 0.4 mm 3 mps 741 mmHg 93%
    21:00 +11°C° 0.4 mm 3 mps 741 mmHg 93%
    22:00 +11°C° 0.4 mm 3 mps 741 mmHg 94%
    23:00 +11°C° 0.9 mm 4 mps 741 mmHg 93%

    29 May, Wednesday

    Time Temperature Precipitation Wind Pressure Humidity
    00:00 +10°C° 0.9 mm 4 mps 741 mmHg 93%
    01:00 +10°C° 0.9 mm 4 mps 741 mmHg 93%
    02:00 +10°C° 0.6 mm 4 mps 741 mmHg 93%
    03:00 +9°C° 0.6 mm 5 mps 741 mmHg 93%
    04:00 +9°C° 0.6 mm 5 mps 740 mmHg 93%
    05:00 +9°C° 1.3 mm 5 mps 741 mmHg 93%
    06:00 +9°C° 1.3 mm 5 mps 741 mmHg 94%
    07:00 +9°C° 1.3 mm 5 mps 741 mmHg 94%
    08:00 +9°C° 2.2 mm 5 mps 742 mmHg 93%
    09:00 +8°C° 2.2 mm 5 mps 742 mmHg 92%
    10:00 +8°C° 2.2 mm 5 mps 743 mmHg 91%
    11:00 +9°C° 0.6 mm 5 mps 743 mmHg 88%
    12:00 +10°C° 0.6 mm 5 mps 744 mmHg 85%
    13:00 +12°C° 0.6 mm 5 mps 745 mmHg 82%
    14:00 +13°C° 0 mm 5 mps 745 mmHg 73%
    15:00 +14°C° 0 mm 5 mps 746 mmHg 64%
    16:00 +15°C° 0 mm 6 mps 746 mmHg 54%
    17:00 +14°C° 0 mm 5 mps 747 mmHg 58%
    18:00 +13°C° 0 mm 5 mps 747 mmHg 62%
    19:00 +11°C° 0 mm 4 mps 748 mmHg 65%
    20:00 +10°C° 0 mm 4 mps 748 mmHg 68%
    21:00 +8°C° 0 mm 4 mps 749 mmHg 71%
    22:00 +7°C° 0 mm 3 mps 749 mmHg 74%
    23:00 +7°C° 0 mm 3 mps 750 mmHg 76%

    30 May, Thursday

    Time Temperature Precipitation Wind Pressure Humidity
    00:00 +5°C° 0 mm 3 mps 750 mmHg 79%
    01:00 +5°C° 0 mm 3 mps 751 mmHg 81%
    02:00 +4°C° 0 mm 3 mps 751 mmHg 83%
    03:00 +5°C° 0 mm 2 mps 751 mmHg 86%
    04:00 +4°C° 0 mm 2 mps 752 mmHg 88%
    05:00 +6°C° 0 mm 2 mps 752 mmHg 80%
    06:00 +8°C° 0 mm 2 mps 753 mmHg 71%
    07:00 +10°C° 0 mm 3 mps 753 mmHg 62%
    08:00 +13°C° 0 mm 2 mps 753 mmHg 56%
    09:00 +14°C° 0 mm 2 mps 753 mmHg 50%
    10:00 +16°C° 0 mm 2 mps 754 mmHg 44%
    11:00 +16°C° 0 mm 2 mps 753 mmHg 44%
    12:00 +17°C° 0 mm 3 mps 753 mmHg 43%
    13:00 +18°C° 0 mm 4 mps 753 mmHg 43%
    14:00 +18°C° 0 mm 4 mps 752 mmHg 43%
    15:00 +18°C° 0 mm 4 mps 752 mmHg 44%
    16:00 +18°C° 0 mm 4 mps 751 mmHg 45%
    17:00 +17°C° 0 mm 4 mps 751 mmHg 51%
    18:00 +16°C° 0 mm 3 mps 750 mmHg 57%
    19:00 +14°C° 0 mm 3 mps 750 mmHg 63%
    20:00 +13°C° 0 mm 3 mps 750 mmHg 66%
    21:00 +12°C° 0 mm 3 mps 749 mmHg 68%
    22:00 +11°C° 0 mm 4 mps 749 mmHg 70%
    23:00 +10°C° 0 mm 4 mps 749 mmHg 69%
    Show more